QPF
0.00 0.00 0.01 0.01 0.01 0.01 0.01 0.02 0.04 0.05 0.04 0.03 0.02 0.02 0.03 0.03 0.01 0.01 0.02 0.02 0.02 0.01 0.02 0.03 0.03 0.02 0.04 0.10 0.11 0.07 0.06 0.08 0.08 0.07 0.06 0.06 0.07 0.07
0.01 0.00 0.00 0.01 0.01 0.01 0.01 0.01 0.02 0.03 0.02 0.02 0.02 0.02 0.03 0.03 0.02 0.01 0.02 0.02 0.01 0.01 0.02 0.03 0.03 0.02 0.02 0.03 0.04 0.04 0.03 0.04 0.05 0.05 0.04 0.05 0.06 0.08
0.01 0.00 0.00 0.00 0.00 0.01 0.01 0.01 0.02 0.02 0.02 0.02 0.01 0.01 0.02 0.03 0.03 0.02 0.01 0.02 0.01 0.01 0.01 0.02 0.03 0.02 0.01 0.01 0.02 0.02 0.02 0.03 0.04 0.05 0.04 0.05 0.08 0.09
0.02 0.02 0.01 0.00 0.00 0.00 0.01 0.01 0.01 0.01 0.01 0.02 0.01 0.01 0.01 0.02 0.03 0.02 0.01 0.01 0.01 0.01 0.01 0.01 0.02 0.02 0.01 0.01 0.01 0.01 0.02 0.02 0.04 0.05 0.06 0.05 0.06 0.09
0.01 0.02 0.02 0.01 0.01 0.00 0.01 0.01 0.01 0.00 0.01 0.01 0.01 0.01 0.01 0.01 0.01 0.01 0.01 0.01 0.00 0.00 0.01 0.01 0.01 0.02 0.02 0.02 0.02 0.01 0.01 0.02 0.03 0.05 0.05 0.05 0.05 0.05
0.00 0.01 0.01 0.01 0.01 0.01 0.00 0.00 0.00 0.00 0.01 0.01 0.02 0.01 0.01 0.01 0.02 0.02 0.01 0.01 0.01 0.00 0.00 0.00 0.01 0.01 0.02 0.02 0.02 0.02 0.01 0.01 0.02 0.04 0.05 0.05 0.05 0.05
0.00 0.01 0.01 0.01 0.03 0.02 0.01 0.01 0.01 0.01 0.02 0.01 0.01 0.01 0.01 0.01 0.01 0.02 0.01 0.01 0.01 0.01 0.00 0.00 0.01 0.01 0.01 0.02 0.02 0.02 0.02 0.02 0.02 0.03 0.04 0.05 0.05 0.05
0.00 0.00 0.00 0.00 0.01 0.01 0.02 0.02 0.02 0.02 0.02 0.02 0.01 0.01 0.01 0.01 0.01 0.01 0.01 0.01 0.01 0.01 0.01 0.01 0.00 0.01 0.01 0.01 0.03 0.02 0.02 0.02 0.02 0.03 0.03 0.05 0.05 0.05
0.00 0.00 0.00 0.00 0.00 0.00 0.00 0.01 0.01 0.01 0.01 0.01 0.01 0.00 0.01 0.01 0.01 0.01 0.01 0.02 0.02 0.02 0.01 0.01 0.00 0.00 0.01 0.01 0.02 0.02 0.01 0.01 0.01 0.02 0.02 0.02 0.04 0.04
0.00 0.00 0.00 0.00 0.00 0.00 0.00 0.00 0.00 0.00 0.00 0.00 0.00 0.00 0.00 0.01 0.01 0.01 0.02 0.02 0.02 0.01 0.01 0.01 0.00 0.00 0.00 0.01 0.02 0.01 0.01 0.01 0.01 0.01 0.01 0.02 0.02 0.04
0.00 0.00 0.00 0.00 0.00 0.00 0.00 0.00 0.00 0.00 0.00 0.00 0.00 0.00 0.00 0.00 0.01 0.01 0.02 0.02 0.01 0.01 0.01 0.01 0.00 0.00 0.01 0.01 0.01 0.01 0.01 0.01 0.01 0.01 0.01 0.01 0.02 0.04
0.00 0.00 0.00 0.00 0.00 0.00 0.00 0.00 0.00 0.00 0.00 0.00 0.00 0.00 0.00 0.00 0.00 0.01 0.02 0.02 0.02 0.02 0.02 0.02 0.01 0.01 0.01 0.01 0.01 0.01 0.01 0.01 0.01 0.01 0.01 0.01 0.02 0.03
0.00 0.00 0.00 0.00 0.00 0.00 0.00 0.00 0.00 0.00 0.00 0.00 0.00 0.00 0.00 0.00 0.00 0.00 0.01 0.01 0.01 0.01 0.02 0.03 0.02 0.02 0.02 0.01 0.01 0.01 0.01 0.01 0.01 0.00 0.01 0.01 0.02 0.02
0.00 0.00 0.00 0.00 0.00 0.00 0.00 0.00 0.00 0.01 0.00 0.00 0.01 0.01 0.01 0.01 0.00 0.00 0.00 0.00 0.01 0.01 0.01 0.02 0.03 0.03 0.03 0.03 0.02 0.02 0.02 0.02 0.02 0.01 0.01 0.01 0.02 0.04
0.00 0.00 0.00 0.00 0.00 0.00 0.00 0.00 0.00 0.01 0.01 0.01 0.01 0.01 0.01 0.01 0.01 0.01 0.01 0.01 0.01 0.01 0.01 0.01 0.02 0.02 0.03 0.03 0.03 0.03 0.03 0.02 0.02 0.02 0.02 0.02 0.03 0.05
0.00 0.00 0.00 0.00 0.00 0.00 0.00 0.00 0.00 0.00 0.01 0.01 0.01 0.01 0.01 0.01 0.01 0.01 0.01 0.01 0.01 0.01 0.01 0.01 0.01 0.02 0.02 0.03 0.03 0.03 0.03 0.03 0.02 0.03 0.03 0.03 0.03 0.04
0.00 0.00 0.00 0.00 0.00 0.00 0.00 0.00 0.00 0.00 0.00 0.01 0.01 0.01 0.01 0.01 0.01 0.01 0.01 0.01 0.01 0.01 0.01 0.01 0.01 0.02 0.03 0.03 0.03 0.03 0.03 0.03 0.03 0.03 0.04 0.04 0.03 0.03
0.00 0.00 0.00 0.00 0.00 0.00 0.00 0.00 0.00 0.00 0.00 0.01 0.01 0.01 0.01 0.01 0.01 0.01 0.01 0.01 0.01 0.01 0.02 0.02 0.02 0.02 0.03 0.02 0.03 0.03 0.04 0.04 0.04 0.04 0.04 0.05 0.04 0.03
0.00 0.00 0.00 0.00 0.00 0.00 0.00 0.00 0.00 0.00 0.00 0.01 0.01 0.02 0.02 0.02 0.02 0.01 0.02 0.02 0.02 0.02 0.03 0.04 0.04 0.04 0.04 0.03 0.02 0.03 0.04 0.05 0.04 0.04 0.04 0.06 0.06 0.04
0.00 0.00 0.00 0.00 0.00 0.00 0.00 0.01 0.01 0.01 0.01 0.01 0.01 0.02 0.03 0.03 0.03 0.02 0.02 0.02 0.02 0.03 0.03 0.04 0.04 0.05 0.05 0.05 0.04 0.03 0.04 0.05 0.05 0.05 0.04 0.06 0.08 0.09
0.01 0.00 0.01 0.01 0.01 0.01 0.01 0.01 0.01 0.01 0.01 0.01 0.01 0.02 0.03 0.03 0.03 0.03 0.03 0.03 0.04 0.04 0.04 0.04 0.05 0.05 0.06 0.06 0.05 0.03 0.03 0.05 0.06 0.06 0.07 0.07 0.08 0.10
0.02 0.01 0.02 0.02 0.02 0.02 0.02 0.02 0.01 0.01 0.01 0.01 0.02 0.02 0.03 0.04 0.04 0.04 0.04 0.05 0.06 0.06 0.06 0.05 0.06 0.06 0.06 0.05 0.04 0.03 0.03 0.04 0.05 0.06 0.08 0.10 0.10 0.09
0.01 0.02 0.02 0.02 0.02 0.02 0.02 0.03 0.03 0.02 0.03 0.03 0.03 0.03 0.04 0.04 0.05 0.06 0.06 0.06 0.08 0.08 0.07 0.07 0.07 0.06 0.05 0.04 0.04 0.03 0.03 0.04 0.06 0.06 0.06 0.07 0.10 0.10
MSLP
1017.27 1017.26 1017.25 1017.20 1017.10 1016.96 1016.78 1016.59 1016.42 1016.29 1016.19 1016.11 1016.04 1015.91 1015.69 1015.36 1014.89 1014.32 1013.70 1013.10 1012.62 1012.34 1012.32 1012.58 1013.10 1013.84 1014.71 1015.62 1016.48 1017.21 1017.78 1018.18 1018.43 1018.58 1018.69 1018.80 1018.96 1019.17
1017.66 1017.65 1017.63 1017.56 1017.45 1017.27 1017.05 1016.81 1016.57 1016.37 1016.23 1016.13 1016.07 1016.03 1015.96 1015.84 1015.65 1015.39 1015.08 1014.79 1014.55 1014.44 1014.49 1014.71 1015.10 1015.63 1016.24 1016.86 1017.43 1017.89 1018.24 1018.46 1018.58 1018.64 1018.69 1018.76 1018.88 1019.06
1018.09 1018.08 1018.06 1017.98 1017.85 1017.66 1017.41 1017.12 1016.84 1016.58 1016.37 1016.24 1016.18 1016.17 1016.19 1016.21 1016.21 1016.17 1016.11 1016.03 1015.97 1015.97 1016.05 1016.22 1016.49 1016.83 1017.21 1017.59 1017.92 1018.19 1018.37 1018.48 1018.53 1018.55 1018.58 1018.64 1018.74 1018.89
1018.60 1018.59 1018.57 1018.50 1018.38 1018.18 1017.92 1017.62 1017.29 1016.98 1016.73 1016.54 1016.44 1016.42 1016.46 1016.54 1016.63 1016.71 1016.77 1016.81 1016.84 1016.88 1016.95 1017.06 1017.21 1017.39 1017.59 1017.79 1017.97 1018.10 1018.19 1018.25 1018.28 1018.31 1018.36 1018.43 1018.54 1018.69
1019.20 1019.20 1019.19 1019.14 1019.04 1018.86 1018.62 1018.31 1017.97 1017.64 1017.33 1017.09 1016.93 1016.85 1016.85 1016.91 1016.99 1017.09 1017.17 1017.23 1017.27 1017.29 1017.31 1017.33 1017.37 1017.43 1017.50 1017.58 1017.65 1017.72 1017.79 1017.84 1017.90 1017.97 1018.06 1018.17 1018.31 1018.46
1019.88 1019.88 1019.89 1019.87 1019.80 1019.67 1019.46 1019.18 1018.85 1018.50 1018.16 1017.86 1017.64 1017.48 1017.40 1017.39 1017.40 1017.44 1017.46 1017.47 1017.44 1017.39 1017.33 1017.26 1017.20 1017.16 1017.13 1017.14 1017.17 1017.21 1017.28 1017.36 1017.47 1017.59 1017.73 1017.88 1018.04 1018.20
1020.58 1020.59 1020.62 1020.63 1020.60 1020.51 1020.35 1020.11 1019.81 1019.47 1019.12 1018.80 1018.51 1018.29 1018.12 1018.00 1017.92 1017.86 1017.79 1017.70 1017.58 1017.44 1017.28 1017.12 1016.97 1016.84 1016.75 1016.71 1016.70 1016.74 1016.82 1016.93 1017.07 1017.23 1017.40 1017.57 1017.75 1017.91
1021.24 1021.26 1021.30 1021.34 1021.34 1021.30 1021.18 1020.99 1020.74 1020.43 1020.09 1019.76 1019.44 1019.17 1018.93 1018.74 1018.57 1018.40 1018.23 1018.05 1017.84 1017.61 1017.36 1017.12 1016.90 1016.70 1016.56 1016.47 1016.43 1016.45 1016.52 1016.63 1016.77 1016.92 1017.09 1017.26 1017.42 1017.57
1021.82 1021.84 1021.88 1021.92 1021.95 1021.94 1021.86 1021.71 1021.50 1021.23 1020.93 1020.62 1020.31 1020.02 1019.75 1019.51 1019.28 1019.06 1018.82 1018.57 1018.29 1017.99 1017.69 1017.39 1017.10 1016.86 1016.66 1016.52 1016.44 1016.41 1016.43 1016.50 1016.59 1016.70 1016.82 1016.94 1017.06 1017.17
1022.27 1022.28 1022.31 1022.35 1022.38 1022.37 1022.31 1022.19 1022.02 1021.79 1021.54 1021.26 1020.99 1020.72 1020.47 1020.23 1019.99 1019.75 1019.49 1019.22 1018.91 1018.59 1018.25 1017.92 1017.60 1017.31 1017.06 1016.86 1016.71 1016.61 1016.55 1016.53 1016.53 1016.55 1016.59 1016.63 1016.67 1016.72
1022.62 1022.61 1022.62 1022.63 1022.63 1022.60 1022.53 1022.42 1022.27 1022.08 1021.87 1021.65 1021.43 1021.21 1021.00 1020.80 1020.60 1020.38 1020.15 1019.88 1019.59 1019.28 1018.95 1018.61 1018.27 1017.96 1017.67 1017.41 1017.18 1016.99 1016.83 1016.69 1016.58 1016.48 1016.40 1016.34 1016.29 1016.27
1022.88 1022.85 1022.83 1022.79 1022.75 1022.68 1022.59 1022.46 1022.31 1022.15 1021.97 1021.79 1021.63 1021.47 1021.32 1021.18 1021.03 1020.87 1020.68 1020.46 1020.21 1019.93 1019.63 1019.31 1018.98 1018.65 1018.33 1018.02 1017.73 1017.45 1017.19 1016.93 1016.70 1016.48 1016.28 1016.11 1015.97 1015.87
1023.11 1023.06 1022.99 1022.91 1022.81 1022.69 1022.55 1022.39 1022.23 1022.07 1021.91 1021.77 1021.64 1021.54 1021.45 1021.36 1021.26 1021.16 1021.02 1020.86 1020.66 1020.43 1020.16 1019.87 1019.57 1019.24 1018.91 1018.58 1018.24 1017.90 1017.55 1017.21 1016.87 1016.55 1016.26 1015.99 1015.77 1015.59
1023.33 1023.25 1023.14 1023.01 1022.85 1022.67 1022.49 1022.29 1022.11 1021.93 1021.78 1021.66 1021.56 1021.48 1021.43 1021.38 1021.32 1021.25 1021.16 1021.04 1020.88 1020.69 1020.47 1020.22 1019.94 1019.64 1019.33 1018.99 1018.63 1018.26 1017.87 1017.48 1017.08 1016.70 1016.33 1016.01 1015.72 1015.49
1023.52 1023.42 1023.28 1023.10 1022.90 1022.67 1022.44 1022.21 1022.00 1021.81 1021.65 1021.53 1021.44 1021.37 1021.33 1021.29 1021.25 1021.19 1021.11 1021.01 1020.88 1020.71 1020.52 1020.31 1020.07 1019.81 1019.52 1019.21 1018.87 1018.51 1018.12 1017.72 1017.31 1016.90 1016.51 1016.15 1015.83 1015.55
1023.64 1023.52 1023.35 1023.15 1022.91 1022.65 1022.39 1022.14 1021.91 1021.71 1021.55 1021.42 1021.32 1021.25 1021.19 1021.14 1021.09 1021.02 1020.93 1020.82 1020.69 1020.54 1020.37 1020.18 1019.98 1019.75 1019.51 1019.24 1018.95 1018.63 1018.28 1017.91 1017.52 1017.13 1016.74 1016.38 1016.04 1015.73
1023.62 1023.49 1023.31 1023.09 1022.83 1022.56 1022.29 1022.04 1021.80 1021.60 1021.43 1021.29 1021.19 1021.10 1021.03 1020.95 1020.87 1020.78 1020.66 1020.53 1020.39 1020.23 1020.06 1019.89 1019.72 1019.53 1019.33 1019.12 1018.88 1018.62 1018.33 1018.01 1017.67 1017.31 1016.95 1016.60 1016.26 1015.93
1023.40 1023.26 1023.07 1022.84 1022.58 1022.32 1022.06 1021.81 1021.59 1021.39 1021.23 1021.10 1020.99 1020.90 1020.80 1020.71 1020.60 1020.48 1020.34 1020.18 1020.01 1019.84 1019.67 1019.51 1019.35 1019.20 1019.04 1018.87 1018.69 1018.48 1018.25 1017.99 1017.69 1017.38 1017.05 1016.71 1016.36 1016.03
1022.94 1022.79 1022.59 1022.37 1022.12 1021.87 1021.63 1021.40 1021.20 1021.03 1020.88 1020.76 1020.66 1020.57 1020.47 1020.37 1020.25 1020.11 1019.95 1019.78 1019.60 1019.42 1019.25 1019.09 1018.94 1018.80 1018.67 1018.53 1018.38 1018.22 1018.02 1017.80 1017.54 1017.26 1016.95 1016.61 1016.27 1015.91
1022.26 1022.10 1021.90 1021.68 1021.45 1021.21 1020.98 1020.78 1020.60 1020.45 1020.33 1020.23 1020.15 1020.07 1019.99 1019.90 1019.78 1019.65 1019.50 1019.33 1019.15 1018.97 1018.80 1018.64 1018.50 1018.36 1018.23 1018.11 1017.97 1017.82 1017.64 1017.43 1017.19 1016.92 1016.61 1016.27 1015.91 1015.53
1021.43 1021.25 1021.05 1020.83 1020.59 1020.37 1020.15 1019.96 1019.80 1019.67 1019.57 1019.50 1019.44 1019.39 1019.33 1019.26 1019.18 1019.07 1018.95 1018.80 1018.64 1018.48 1018.32 1018.17 1018.02 1017.88 1017.74 1017.61 1017.46 1017.30 1017.11 1016.90 1016.65 1016.36 1016.04 1015.69 1015.32 1014.92
1020.54 1020.34 1020.13 1019.89 1019.66 1019.43 1019.22 1019.03 1018.87 1018.75 1018.66 1018.60 1018.57 1018.54 1018.52 1018.49 1018.44 1018.38 1018.29 1018.19 1018.07 1017.93 1017.79 1017.64 1017.49 1017.34 1017.19 1017.03 1016.86 1016.67 1016.46 1016.22 1015.94 1015.64 1015.30 1014.94 1014.55 1014.14
1019.69 1019.47 1019.23 1018.98 1018.73 1018.49 1018.26 1018.06 1017.90 1017.77 1017.68 1017.62 1017.60 1017.59 1017.60 1017.60 1017.60 1017.58 1017.54 1017.48 1017.40 1017.30 1017.17 1017.04 1016.89 1016.73 1016.55 1016.37 1016.17 1015.94 1015.70 1015.43 1015.14 1014.82 1014.47 1014.10 1013.71 1013.30
Thickness
5698 5698 5696 5696 5696 5695 5694 5691 5684 5679 5681 5688 5691 5696 5698 5699 5700 5701 5701 5702 5703 5704 5706 5707 5708 5709 5711 5712 5714 5715 5716 5717 5718 5719 5720 5721 5722 5723
5696 5695 5694 5694 5693 5693 5692 5690 5688 5683 5679 5685 5688 5692 5694 5695 5696 5697 5698 5699 5700 5701 5702 5703 5704 5705 5706 5708 5709 5710 5711 5712 5713 5714 5715 5716 5717 5718
5693 5692 5691 5691 5690 5690 5689 5688 5686 5684 5679 5682 5686 5689 5690 5690 5691 5692 5694 5695 5696 5697 5698 5699 5699 5701 5702 5703 5704 5705 5706 5707 5708 5709 5711 5712 5712 5713
5689 5688 5687 5687 5686 5685 5685 5684 5683 5683 5679 5677 5680 5683 5685 5686 5687 5688 5689 5690 5691 5692 5694 5694 5695 5696 5697 5698 5699 5700 5701 5702 5703 5704 5705 5706 5707 5708
5685 5684 5683 5681 5679 5679 5679 5678 5678 5679 5677 5675 5675 5678 5679 5681 5682 5683 5684 5685 5686 5687 5689 5690 5690 5691 5692 5693 5694 5694 5695 5696 5697 5698 5699 5700 5701 5702
5680 5679 5678 5676 5674 5673 5673 5672 5672 5671 5671 5669 5669 5670 5672 5674 5675 5674 5675 5677 5679 5682 5683 5684 5685 5686 5686 5687 5688 5688 5689 5690 5691 5692 5692 5694 5694 5695
5674 5673 5672 5671 5669 5668 5667 5665 5664 5662 5662 5661 5660 5661 5662 5663 5664 5666 5666 5669 5672 5674 5675 5676 5678 5678 5679 5681 5681 5682 5683 5684 5685 5685 5686 5687 5688 5689
5666 5666 5665 5664 5662 5661 5660 5659 5658 5656 5654 5653 5653 5652 5654 5656 5657 5658 5657 5658 5659 5666 5666 5667 5669 5670 5672 5673 5675 5675 5677 5678 5679 5679 5680 5680 5681 5681
5659 5658 5658 5656 5653 5652 5652 5652 5651 5650 5649 5647 5646 5646 5647 5649 5649 5649 5649 5650 5651 5656 5656 5657 5660 5661 5664 5666 5667 5668 5669 5670 5671 5671 5672 5673 5673 5674
5653 5651 5648 5645 5644 5643 5643 5643 5642 5642 5641 5641 5640 5641 5643 5643 5643 5643 5643 5644 5647 5648 5648 5646 5650 5651 5655 5657 5658 5659 5660 5661 5662 5663 5664 5665 5666 5666
5645 5642 5639 5636 5635 5634 5633 5632 5632 5632 5633 5633 5634 5634 5635 5635 5635 5634 5632 5631 5632 5636 5637 5636 5639 5641 5644 5646 5649 5650 5651 5652 5653 5654 5655 5656 5657 5657
5635 5633 5630 5628 5626 5624 5622 5621 5620 5621 5622 5623 5624 5624 5624 5625 5624 5622 5620 5618 5619 5621 5626 5624 5626 5626 5629 5635 5637 5639 5640 5641 5642 5644 5645 5646 5647 5647
5624 5622 5620 5619 5617 5615 5613 5611 5611 5611 5611 5611 5612 5612 5613 5612 5612 5611 5609 5607 5606 5607 5611 5610 5611 5612 5613 5618 5623 5626 5627 5629 5631 5633 5634 5636 5637 5637
5612 5611 5610 5609 5608 5606 5604 5603 5602 5601 5600 5599 5598 5598 5598 5598 5598 5598 5597 5597 5596 5596 5597 5597 5597 5597 5598 5602 5607 5612 5615 5617 5618 5621 5623 5625 5625 5626
5602 5602 5600 5599 5598 5596 5595 5594 5592 5589 5587 5585 5585 5585 5585 5585 5585 5584 5584 5584 5584 5584 5584 5583 5583 5584 5584 5586 5590 5595 5598 5603 5606 5608 5611 5612 5614 5615
5591 5590 5589 5588 5587 5586 5585 5583 5580 5578 5575 5573 5572 5572 5571 5570 5569 5568 5567 5567 5567 5568 5569 5568 5568 5568 5569 5572 5574 5578 5581 5585 5591 5594 5596 5599 5601 5603
5580 5579 5577 5576 5575 5573 5572 5570 5568 5565 5562 5560 5558 5556 5555 5554 5552 5551 5550 5549 5548 5549 5551 5552 5552 5553 5554 5555 5557 5562 5565 5570 5574 5577 5580 5584 5588 5590
5567 5565 5564 5563 5561 5560 5557 5556 5553 5550 5547 5545 5542 5540 5538 5536 5535 5534 5532 5531 5531 5532 5532 5533 5533 5535 5537 5540 5541 5544 5548 5553 5557 5560 5563 5567 5573 5577
5554 5552 5551 5550 5548 5546 5544 5541 5538 5535 5532 5529 5526 5524 5522 5519 5518 5517 5515 5514 5514 5514 5515 5514 5514 5513 5515 5522 5528 5528 5530 5536 5539 5543 5547 5550 5555 5561
5542 5540 5539 5537 5535 5532 5529 5526 5523 5520 5516 5513 5510 5507 5505 5503 5501 5500 5499 5498 5498 5499 5499 5498 5497 5496 5497 5502 5510 5516 5517 5519 5523 5527 5531 5535 5539 5544
5531 5528 5526 5523 5520 5517 5514 5510 5507 5504 5500 5497 5494 5492 5489 5487 5486 5485 5484 5484 5484 5483 5484 5485 5485 5485 5486 5487 5492 5501 5504 5506 5509 5512 5516 5518 5522 5527
5519 5516 5513 5509 5506 5502 5499 5495 5492 5488 5485 5482 5480 5477 5476 5474 5473 5472 5471 5470 5470 5471 5471 5473 5473 5473 5473 5474 5478 5485 5490 5494 5497 5499 5502 5505 5506 5512
5506 5502 5499 5495 5491 5488 5484 5481 5478 5475 5472 5469 5467 5465 5463 5462 5461 5460 5459 5459 5458 5459 5459 5460 5461 5461 5462 5464 5466 5472 5476 5480 5483 5487 5492 5494 5495 5499